Location: ?????????
(55.7230°N, 38.4639°E)
Time: 10:10:41
(UTC+00:00)

Daily predictions for brighter satellites

Satellite Brightness Start Highest point End
(mag) Time Altitude Azimuth Time Altitude Azimuth Time Altitude Azimuth
Meteor 1-24 Rocket 4.1 15:19:01 10° N 15:23:58 38° ENE 15:28:57 10° SE
H-2A R/B 4.4 15:22:14 10° SSW 15:26:52 30° W 15:31:37 10° NNW
USA 186 3.7 15:25:07 10° E 15:27:08 15° ENE 15:29:10 10° NNE
CZ-4 R/B 4.4 15:23:22 10° SSE 15:27:29 82° ENE 15:31:38 10° NNW
YAOGAN 1 2.8 15:24:04 10° SE 15:28:12 47° ENE 15:32:23 10° N
USA 215 3.8 15:22:34 10° ENE 15:28:42 41° SE 15:34:47 10° SSW
Cosmos 1844 4.0 15:23:39 10° NNW 15:29:03 48° NE 15:34:26 10° ESE
Meteor 2-10 4.2 15:26:30 10° S 15:31:57 60° E 15:37:15 10° NNE
Cosmos 2227 4.5 15:27:17 10° NW 15:32:56 76° WSW 15:38:32 10° SSE
SKYMED 2 3.7 15:29:54 10° NNE 15:34:13 56° E 15:38:29 10° S
Cosmos 1437 Rocket 3.7 15:32:10 10° SSE 15:35:14 25° E 15:38:21 10° NE
COBE Rocket 3.8 15:30:38 10° SSE 15:35:21 62° ENE 15:39:59 10° N
Nadezhda 4 Rocket 4.3 15:29:57 10° SSE 15:35:58 48° E 15:41:57 10° NNE
Cosmos 1697 Rocket 3.1 15:30:32 10° SW 15:36:08 68° NW 15:41:48 10° NNE
SJ-6B 4.1 15:37:19 10° ESE 15:40:14 21° ENE 15:43:12 10° N
Okean O Rocket 1.8 15:36:12 10° SE 15:40:27 52° ENE 15:44:45 10° N
Cosmos 1975 4.3 15:36:46 10° SW 15:40:37 42° WNW 15:44:28 10° N
Cosmos 1805 3.2 15:38:14 10° S 15:42:06 88° ESE 15:46:02 10° NNE
SL-4 R/B 4.4 15:39:39 10° W 15:42:59 21° SSW 15:46:27 10° SSE
Cosmos 2333 Rocket 3.9 15:41:59 10° ESE 15:43:19 11° E 15:44:39 10° E
CZ-4C R/B 3.7 15:39:12 10° NNE 15:43:30 75° WNW 15:47:34 10° SSW
Cosmos 1378 Rocket 3.8 15:39:54 10° NNW 15:44:18 75° W 15:48:37 10° S
Cosmos 2360 Rocket 3.5 15:41:07 10° SE 15:44:36 17° E 15:48:07 10° ENE
Cosmos 2285 Rocket 4.2 15:38:56 10° NNW 15:45:18 79° WSW 15:51:41 10° SSE
Cosmos 1733 3.3 15:41:54 10° SSW 15:45:38 78° WNW 15:49:23 10° N
Meteor 2-14 Rocket 4.4 15:41:29 10° S 15:47:29 68° E 15:53:31 10° NNE
Cosmos 1975 Rocket 3.6 15:43:49 10° N 15:47:59 38° ENE 15:52:03 10° SE
Feng Yun 1-1 Rocket 4.3 15:43:32 10° SE 15:48:50 57° ENE 15:54:07 10° NNW
HJ-1C 3.2 15:47:59 10° SSE 15:51:02 60° ENE 15:54:07 10° N
Cosmos 1850 Rocket 4.0 15:46:48 10° SSW 15:52:04 90° SE 15:57:25 10° NNE
DMSP B5D2-2 4.1 15:48:34 10° NNE 15:53:53 81° ESE 15:59:10 10° SSW
SKYMED 3 4.4 15:50:15 10° NNE 15:54:23 72° ESE 15:58:30 10° S
ASTEX 1 3.5 15:49:59 10° N 15:55:00 88° W 16:00:01 10° S
Cosmos 1726 2.0 15:53:07 10° S 15:56:46 83° E 16:00:27 10° NNE
Cosmos 1733 Rocket 3.7 15:57:51 10° SSW 16:02:15 63° WNW 16:06:42 10° N
CSL-04 Rocket 4.1 15:58:30 10° SE 16:03:33 43° ENE 16:08:42 10° N
Cosmos 1570 Rocket 4.4 15:58:23 10° NNW 16:03:37 66° WSW 16:08:47 10° SSE
Cosmos 1766 3.2 16:00:54 10° S 16:04:49 79° ESE 16:08:48 10° NNE
USA 267 4.1 16:00:59 10° SE 16:07:16 47° SW 16:13:35 10° WNW
H-2A R/B 3.8 16:08:05 17° E 16:09:13 19° ENE 16:11:59 10° N
Meteor 1-12 Rocket 4.3 16:03:53 10° S 16:09:51 70° E 16:15:52 10° NNE
CZ-4 R/B 1.4 16:07:18 10° SSE 16:11:30 82° ENE 16:15:41 10° NNW
Meteor 2-21 Rocket 4.4 16:06:46 10° S 16:12:46 73° E 16:18:49 10° NNE
Cosmos 2322 Rocket 2.7 16:09:14 10° S 16:14:25 37° ESE 16:19:37 10° NE
IRS-1C Rocket 4.4 16:10:55 11° SE 16:15:38 45° ENE 16:20:39 10° N
Cosmos 1980 Rocket 2.7 16:13:33 10° SW 16:19:08 63° NW 16:24:44 10° NNE
Cosmos 1092 Rocket 4.1 16:13:25 10° SSE 16:19:32 56° E 16:25:36 10° NNE
Meteor 2-5 Rocket 3.7 16:14:22 10° NNW 16:19:57 85° WSW 16:25:30 10° S
CZ-4B R/B 3.7 16:16:20 10° S 16:21:43 63° WSW 16:27:15 10° NNW
COSMO-SKYMED 1 3.3 16:18:00 10° N 16:22:17 58° WNW 16:26:33 10° SSW
Cosmos 921 Rocket 4.0 16:19:24 10° NNW 16:23:29 32° NE 16:25:18 23° E
Meteor 2-16 Rocket 4.4 16:19:09 10° S 16:25:16 76° E 16:31:27 10° NNE
Meteor 1-15 Rocket 4.1 16:20:52 10° S 16:26:24 78° ESE 16:32:01 10° NNE
IGS 5A 3.6 16:24:11 16° SE 16:27:17 52° ENE 16:31:19 10° N
NOSS 2-1 (C) 4.5 16:27:12 10° NW 16:30:26 31° NNE 16:32:33 20° ENE
Cosmos 773 Rocket 4.2 16:25:47 10° NNW 16:31:02 56° NE 16:34:19 22° SE
Cosmos 1470 2.6 16:27:48 10° S 16:31:36 67° E 16:35:26 10° NNE
Landsat 7 4.1 16:29:21 21° SE 16:32:13 46° ENE 16:36:45 10° N
Cosmos 1844 Rocket 2.9 16:26:57 10° NW 16:32:38 72° WSW 16:38:17 10° SSE
Resurs 01 Rocket 2.6 16:32:56 25° E 16:34:04 29° ENE 16:37:53 10° N
Cosmos 1943 Rocket 3.8 16:31:01 10° NNW 16:35:11 21° NNE 16:38:06 15° ENE
Cosmos 158 Rocket 4.2 16:32:19 10° NNW 16:37:02 46° NE 16:39:12 28° ESE
USA 290 4.1 16:35:51 10° S 16:36:53 18° SSE 16:36:53 18° SSE
Resurs 1-3 3.7 16:37:56 24° SE 16:40:21 54° ENE 16:44:39 10° N
DNEPR-1 R/B 4.4 16:35:56 10° S 16:40:31 41° ESE 16:45:58 10° NE
NOSS 2-1 (D) 4.4 16:37:24 10° NW 16:40:42 34° NNE 16:42:28 24° ENE
ATLAS 2AS CENTAUR R/B 3.4 16:35:06 10° WNW 16:42:16 48° N 16:46:54 21° ENE
Sich 1 Rocket 4.3 16:42:53 31° E 16:42:53 31° E 16:46:41 10° NNE
Aureole 1 Rocket 4.5 16:37:27 10° SSE 16:43:27 33° ESE 16:48:22 10° NE
OBJECT-B 0.2 16:44:58 54° SSW 16:45:24 74° WSW 16:47:57 10° NNW
Lacrosse 4 Rocket 1.6 16:41:48 10° SSW 16:45:45 46° ESE 16:47:30 29° ENE
SL-16 R/B 2.1 16:40:17 10° SSW 16:45:56 74° ESE 16:51:37 10° NE
Cosmos 2278 4.0 16:40:46 10° SW 16:46:25 68° NW 16:52:07 10° NNE
Helios 1B 4.5 16:44:18 10° NNE 16:48:37 63° ESE 16:52:55 10° S
S3M 4.2 16:43:01 10° N 16:49:06 50° ENE 16:52:25 26° SE
Cosmos 1300 Rocket 3.6 16:45:12 10° S 16:49:26 55° E 16:53:45 10° NNE
Cosmos 968 Rocket 3.5 16:45:07 10° SSW 16:50:23 85° WNW 16:55:38 10° NNE
Cosmos 1428 Rocket 4.4 16:45:08 10° S 16:51:21 85° ESE 16:57:41 10° NNE
COSMOS 2455 4.1 16:47:15 10° SSE 16:49:54 21° SE 16:49:54 21° SE
Cosmos 1908 Rocket 4.3 16:48:21 10° SSW 16:52:36 54° WNW 16:56:53 10° N
Cosmos 2084 4.4 16:49:29 10° W 16:53:03 37° NNW 16:55:25 18° NE
Cosmos 1025 Rocket 3.4 16:48:54 10° NNW 16:53:12 64° W 16:57:28 10° S
Cosmos 2278 Rocket 2.8 16:47:53 10° NNW 16:53:14 40° NE 16:55:20 30° E
NOSS 3-4 (A) 3.7 16:47:04 10° NW 16:53:42 80° NE 16:57:55 28° ESE
Cosmos 1758 3.4 16:51:31 24° SSE 16:53:43 53° E 16:57:39 10° NNE
NOSS 3-4 (C) 3.7 16:47:11 10° NW 16:53:49 80° NE 16:58:01 28° ESE
USA 81 4.2 16:49:19 10° N 16:54:37 77° W 16:59:53 10° S
Okean-O 2.5 16:52:18 21° SSE 16:55:14 85° ENE 16:59:42 10° NNW
CRYOSAT 2 4.3 16:54:02 10° S 16:58:57 88° W 17:03:54 10° N
USA 186 2.2 16:57:20 27° S 16:59:00 67° WSW 17:02:24 10° NNW
Cosmos 1627 Rocket 4.4 16:53:51 10° S 16:59:58 88° E 17:06:11 10° NNE
Cosmos 1782 Rocket 3.7 16:56:40 10° SSW 17:01:00 76° WNW 17:05:25 10° N
Cosmos 2369 Rocket 4.1 16:57:35 10° NNW 17:01:39 19° NNE 17:04:47 13° NE
USA 281 4.2 16:59:34 24° ENE 17:02:18 33° NE 17:08:00 10° NNW
Cosmos 2292 Rocket 4.1 16:58:56 10° SSW 17:03:15 52° WNW 17:06:41 10° N
Cosmos 2219 Rocket4.417:08:54NE17:08:54NE16:56:41S
deb Chang Zheng 4 3.4 17:05:06 51° ESE 17:05:52 63° ENE 17:10:00 10° NNW
ERS-1 Rocket 4.4 17:06:56 22° NE 17:07:05 22° NE 17:10:53 10° N
NOSS 3-3 (A) 4.2 17:01:45 10° SSW 17:07:06 42° ESE 17:09:47 28° ENE
NOSS 3-3 (C) 4.2 17:01:52 10° SSW 17:07:12 42° ESE 17:09:44 29° ENE
MetOp-A 3.3 17:06:47 57° ESE 17:07:13 61° ENE 17:11:18 10° N
Cosmos 1417 Rocket 4.3 17:02:39 10° N 17:08:49 75° ENE 17:12:39 24° SSE
Cosmos 1703 3.0 17:06:54 10° N 17:10:47 81° ENE 17:11:17 65° SSE
Cosmos 1437 Rocket 4.2 17:07:45 10° SW 17:11:15 38° WNW 17:14:47 10° N
USA 215 3.2 17:08:07 25° ENE 17:12:17 81° SSE 17:18:51 10° WSW
Terra 3.5 17:12:42 19° NE 17:12:42 19° NE 17:15:42 10° N
Cosmos 2026 Rocket 4.0 17:06:27 10° SSW 17:12:32 80° WNW 17:18:40 10° N
SJ-6B 3.4 17:12:23 23° S 17:14:31 53° W 17:18:18 10° NNW
Okean O Rocket 3.8 17:13:23 10° SSW 17:17:03 26° W 17:20:46 10° NW
Spot 2 4.0 17:20:58 64° E 17:21:19 68° ENE 17:25:47 10° NNW
Ariane Rocket 3.3 17:21:38 46° E 17:22:06 48° ENE 17:27:00 10° N
Cosmos 1553 Rocket 4.2 17:15:59 10° NNW 17:22:21 74° W 17:28:23 12° S
Cosmos 1908 3.3 17:23:27 63° NNE 17:23:27 63° NNE 17:26:42 10° NNE
Cosmos 1536 Rocket 3.4 17:19:42 10° NNW 17:24:06 86° E 17:24:47 63° SSE
SPOT 1/Viking Rocket 3.4 17:24:50 51° SE 17:26:03 72° ENE 17:31:12 10° NNW
Cosmos 2333 Rocket 2.3 17:20:45 10° S 17:26:17 51° ESE 17:31:51 10° NE
Cosmos 2360 Rocket 2.0 17:22:04 10° SSW 17:27:42 75° ESE 17:33:22 10° NE
Okean 2 Rocket 3.3 17:28:27 56° NE 17:28:27 56° NE 17:32:19 10° NNE
Cosmos 1953 4.5 17:31:24 16° NNE 17:31:24 16° NNE 17:32:18 10° NNE
Cosmos 1503 Rocket 3.9 17:25:06 10° S 17:30:27 58° E 17:35:18 10° NNE
Landsat 5 3.7 17:27:01 10° NNE 17:31:33 77° WNW 17:35:58 10° SSW
SPOT 3 Rocket 4.0 17:32:43 42° ENE 17:32:43 42° ENE 17:37:33 10° N
Meteor 1-11 4.3 17:28:49 10° N 17:34:24 54° ENE 17:34:52 53° E
IRS-1A Rocket 4.2 17:33:03 49° SE 17:34:41 77° ENE 17:40:33 10° NNW
Meteor 1-21 Rocket 4.1 17:29:45 10° NNW 17:35:20 85° WSW 17:37:22 41° S
NOSS 2-1 (E) 3.9 17:32:01 10° NW 17:35:45 52° NNE 17:35:47 52° NNE
CARTOSAT-1 4.1 17:40:26 47° NNE 17:40:26 47° NNE 17:43:52 10° N
JB-3 4.5 17:36:50 10° NNE 17:40:41 73° NW 17:40:41 73° NW
H-2A R/B 2.6 17:44:32 62° WNW 17:44:32 62° WNW 17:48:06 10° NNW
Spot 2 Rocket 4.3 17:46:08 38° NE 17:46:08 38° NE 17:50:14 10° N
CZ-4 R/B 4.4 17:44:26 10° SW 17:46:58 16° W 17:49:31 10° NW
Cosmos 1538 Rocket 3.9 17:41:33 10° NNW 17:46:59 82° ENE 17:47:27 74° ESE
Cosmos 923 Rocket 4.4 17:45:37 10° NNW 17:50:29 48° NE 17:50:29 48° NE
SPOT 5 3.7 17:54:23 37° NNE 17:54:23 37° NNE 17:57:39 10° N
Cosmos 2151 Rocket 4.2 17:57:58 49° N 17:57:58 49° N 18:01:15 10° N
Cosmos 2322 Rocket 2.8 17:52:40 10° SW 17:58:18 58° NW 18:03:58 10° NNE
SeaSat 1 4.3 17:58:37 18° NE 17:59:24 19° NNE 18:02:46 10° NNW
Cosmos 921 Rocket 3.8 17:57:35 10° NNW 18:01:57 48° WSW 18:02:06 48° WSW
Cosmos 2333 4.1 17:56:16 10° SSW 18:02:02 82° ESE 18:07:48 10° NE
Cosmos 2315 Rocket 3.9 17:56:27 10° NNW 18:02:52 89° ENE 18:04:03 62° S
Cosmos 1980 Rocket 4.3 17:59:42 10° W 18:04:14 24° NNW 18:08:45 10° NNE
RESURS DK-1 4.5 18:02:44 10° NNW 18:05:08 20° NNE 18:05:08 20° NNE
Resurs 01 Rocket 2.3 18:10:29 49° W 18:10:29 49° W 18:14:44 10° NNW
USA 245 4.2 18:17:37 69° N 18:17:37 69° N 18:21:54 10° NNW
Cosmos 1867 4.0 18:13:44 10° NW 18:18:50 52° NNE 18:18:50 52° NNE
Cosmos 1943 Rocket 2.7 18:14:49 10° NNW 18:19:36 49° NNE 18:19:36 49° NNE
Lacrosse 4 Rocket 2.9 18:20:35 10° WSW 18:23:47 35° WNW 18:23:47 35° WNW
SJ 16-02 3.7 18:29:05 16° NNE 18:29:05 16° NNE 18:30:03 10° NNE
MetOp-B 4.4 18:26:51 65° W 18:26:51 65° W 18:32:05 10° NNW
Aureole 1 Rocket 4.1 18:20:41 10° SW 18:27:26 65° WNW 18:32:37 10° NNE
SL-16 R/B 3.7 18:25:23 10° WSW 18:30:33 34° NW 18:35:44 10° NNE
Cosmos 2266 Rocket 4.2 18:29:19 46° SW 18:31:15 70° WNW 18:37:36 10° N
ATLAS 2AS CENTAUR R/B 2.6 18:26:43 10° NW 18:34:02 82° NE 18:34:19 80° ENE
Cosmos 2278 Rocket 2.6 18:32:02 10° NW 18:37:10 57° W 18:37:10 57° W
Cosmos 1655 Rocket 4.3 18:41:12 52° SW 18:42:33 64° WNW 18:48:49 10° N
ERS-1 Rocket 3.9 18:46:55 45° NNW 18:46:55 45° NNW 18:50:25 10° NNW
USA 281 3.1 18:46:26 84° N 18:46:26 84° N 18:52:51 10° NNW
Cosmos 2369 Rocket 3.3 18:41:57 10° NNW 18:46:33 37° NNE 18:46:33 37° NNE
Cosmos 2219 Rocket 3.7 18:50:34 28° NNE 18:50:34 28° NNE 18:53:08 10° NNE
Terra 3.2 18:51:35 35° NNW 18:51:35 35° NNW 18:54:20 10° NNW
ADEOS Rocket 4.1 18:52:54 32° NNE 18:52:54 32° NNE 18:56:51 10° N
USA 215 3.2 18:55:28 80° NNW 18:55:28 80° NNW 19:01:57 10° W
NOSS 3-3 (A) 4.2 18:51:45 10° WSW 19:04:58 - NE 18:57:19 68° NW
NOSS 3-3 (C) 4.2 18:51:51 10° WSW 19:05:00 - NE 18:57:17 67° WNW
Meteor 2-10 Rocket 4.3 18:58:35 56° NW 18:58:35 56° NW 19:03:56 10° N
Ariane Rocket 4.4 19:01:50 34° W 19:01:50 34° W 19:05:56 10° NNW
Cosmos 2333 Rocket 3.1 19:05:11 10° WSW 19:10:43 46° NW 19:16:15 10° NNE
Cosmos 2360 Rocket 3.7 19:07:06 10° WSW 19:12:14 34° NW 19:17:22 10° NNE
SeaSat 1 4.3 19:38:22 27° NNW 19:38:22 27° NNW 19:40:45 10° NNW
COSMOS 2428 4.5 19:44:46 26° NNE 19:44:46 26° NNE 19:47:20 10° NNE
Cosmos 2322 Rocket 4.3 19:39:02 10° WNW 19:43:33 23° NNW 19:48:05 10° NNE
Cosmos 1943 Rocket 4.1 19:58:46 10° NW 20:01:06 24° WNW 20:01:06 24° WNW
SJ 16-02 4.3 20:05:58 13° NNW 20:05:58 13° NNW 20:07:37 10° N
ATLAS 2AS CENTAUR R/B 4.2 20:18:06 10° WNW 20:21:43 27° WNW 20:21:43 27° WNW
Cosmos 2369 Rocket 4.1 20:26:03 10° NW 20:28:19 25° NW 20:28:19 25° NW
Cosmos 2219 Rocket 4.1 20:32:14 26° NNW 20:32:22 26° NNW 20:37:06 10° NNE
Cosmos 2333 Rocket 4.4 20:52:09 10° WNW 20:56:27 21° NNW 21:00:44 10° NNE
Cosmos 2237 Rocket 4.2 21:02:42 24° NNE 21:02:42 24° NNE 21:05:12 10° NNE
Cosmos 1980 Rocket 4.2 21:31:42 10° NNW 21:35:36 24° NNE 21:35:36 24° NNE
SL-16 R/B 4.0 21:38:30 31° NE 21:38:30 31° NE 21:43:25 10° N
SL-16 R/B 4.1 21:47:58 26° NNE 21:47:58 26° NNE 21:50:40 10° NNE
Cosmos 2344 4.0 21:45:37 56° NNW 21:45:48 56° NNW 21:54:26 10° ENE
CZ-2D R/B 4.3 22:10:33 10° NE 22:12:52 20° ENE 22:12:52 20° ENE
ADEOS II 4.3 22:23:42 10° NE 22:26:14 18° ENE 22:26:14 18° ENE
Cosmos 2237 Rocket 4.3 22:44:31 18° NNW 22:45:37 19° NNW 22:49:35 10° NNE
Cosmos 2322 Rocket 4.1 23:10:57 10° NNW 23:15:46 27° NNE 23:20:33 10° E
ATLAS 5 CENTAUR R/B 3.6 23:20:36 28° NNE 23:20:36 28° NNE 23:23:51 10° ENE
SL-16 R/B 3.4 23:23:36 40° NNW 23:23:36 40° NNW 23:27:30 10° NNW
Cosmos 1980 Rocket 4.1 23:15:42 10° NNW 23:17:18 20° NNW 23:17:18 20° NNW
IDEFIX/ARIANE 42P 3.6 23:22:51 10° NNE 23:26:55 44° ENE 23:26:55 44° ENE
SL-16 R/B 4.1 23:29:50 19° NNW 23:30:48 20° NNW 23:34:58 10° NNE
Resurs 1-4 Rocket 3.0 23:28:20 10° NNE 23:31:59 46° NNE 23:31:59 46° NNE
Meteor 1-11 Rocket 4.4 23:32:57 10° N 23:38:50 54° ENE 23:39:56 48° ESE
SL-16 R/B 3.3 23:42:57 10° NNW 23:48:20 42° NE 23:53:43 10° ESE
Cosmos 2278 4.0 23:43:34 10° NNW 23:51:56 31° ESE 23:54:50 10° SE
MSX 4.1 23:44:09 10° NNE 23:49:53 61° ESE 23:49:54 61° ESE
ATLAS CENTAUR R/B 3.0 23:54:55 38° E 23:54:55 38° E 23:58:20 10° NE
